Tracking 34348 objects as of 9-Jun-2026
HD Live streaming from Space Station
objects crossing your sky now

ONEWEB-0698

Track ONEWEB-0698 now!
10-day predictions
ONEWEB-0698 is classified as:


NORAD ID: 61604
Int'l Code: 2024-188L
Perigee: 1,224.3 km
Apogee: 1,225.3 km
Inclination: 87.9 °
Period: 109.8 minutes
Semi major axis: 7595 km
RCS: Unknown
Launch date: October 20, 2024
Source: United States (US)
Launch site: AIR FORCE WESTERN TEST RANGE (AFWTR)
Your satellite tracking list
Your tracking list is empty




NASA's NSSDC Master Catalog

Two Line Element Set (TLE):
1 61604U 24188L   26160.11517590 -.00000536  00000-0 -15491-2 0  9992
2 61604  87.8892  22.6884 0000638  92.1385 267.9815 13.11417980 83415
Source of the keplerian elements: AFSPC